Flight Track Log - Related Links

Times and Time Zones

All times are in EDT time to prevent confusion due to time zone crossing. See the EJA982 flight status page for this flight to view local times or setup timezone preferences in your user account.

Time Position Orientation Groundspeed Altitude Reporting Facility
EDT Latitude Longitude Course Direction KTS MPH feet Rate Location/Type
Thu 01:03:11 PM 53.2500 -113.5667 138° Southeast 170 196 3,800  Level Edmonton Center
Thu 01:04:11 PM 53.2167 -113.5167 138° Southeast 220 253 8,200 4,200 Climbing Edmonton Center
Thu 01:05:11 PM 53.1500 -113.4667 156° South 260 299 12,200 3,300 Climbing Edmonton Center
Thu 01:06:11 PM 53.0500 -113.4667 180° South 340 391 14,800 2,200 Climbing Edmonton Center
Thu 01:07:11 PM 52.9500 -113.5167 197° South 370 426 16,600 1,100 Climbing Edmonton Center
Thu 01:08:11 PM 52.8500 -113.5167 180° South 400 460 17,000 200 Climbing Edmonton Center
Thu 01:09:11 PM 52.7167 -113.5167 180° South 400 460 17,000 50 Level Edmonton Center
Thu 01:10:11 PM 52.6000 -113.5167 180° South 410 472 17,100  Climbing Edmonton Center
Thu 01:11:11 PM 52.5000 -113.5500 191° South 410 472 17,000  Descending Edmonton Center
Thu 01:12:11 PM 52.3833 -113.5667 185° South 410 472 17,100  Climbing Edmonton Center
Thu 01:13:11 PM 52.2667 -113.5667 180° South 400 460 17,000  Descending Edmonton Center
Thu 01:14:11 PM 52.1667 -113.5667 180° South 400 460 17,100  Climbing Edmonton Center
Thu 01:15:11 PM 52.0333 -113.5833 184° South 400 460 17,000 -50 Descending Edmonton Center
Thu 01:16:11 PM 51.9167 -113.6000 185° South 410 472 17,000 -500 Level Edmonton Center
Thu 01:17:11 PM 51.8167 -113.6167 186° South 400 460 16,000 -1,600 Descending Edmonton Center
Thu 01:18:11 PM 51.7167 -113.6500 192° South 390 449 13,800 -2,150 Descending Edmonton Center
Thu 01:19:11 PM 51.6000 -113.7000 195° South 400 460 11,700 -1,900 Descending Edmonton Center
Thu 01:20:11 PM 51.5167 -113.8167 221° Southwest 390 449 10,000 -950 Descending Edmonton Center
Thu 01:21:11 PM 51.4333 -113.8833 207° Southwest 280 322 9,800 -750 Descending Edmonton Center
Thu 01:22:11 PM 51.4167 -114.0000 257° West 280 322 8,500 -1,400 Descending Edmonton Center
Thu 01:23:11 PM 51.3500 -114.0333 197° South 200 230 7,000 -1,250 Descending Edmonton Center
Thu 01:24:11 PM 51.3000 -114.0500 192° South 150 173 6,000 -500 Descending Edmonton Center
Thu 01:25:11 PM 51.2667 -114.0500 180° South 160 184 6,000  Level Edmonton Center
Thu 01:26:11 PM 51.2167 -114.0333 168° South 160 184 6,000 -450 Level Edmonton Center
Thu 01:27:11 PM 51.1667 -114.0500 192° South 160 184 5,100 -850 Descending Edmonton Center
Thu 01:28:11 PM 51.1333 -114.0500 180° South 160 184 4,300 -800 Descending Edmonton Center

Login

Don't have an account? Register now (free) for customized features, flight alerts, and more!